Preview of NWS' New Version of Forecast
This preview is not operational and should not be used for support decisions.
Latest weather observations around

College Park Airport (KCGS)

Using English Units (Switch to International System of Units)
Date/ Time (EDT) Wind (mph) Vis. (mi) Weather Sky Cond. Temp (°F) Rel. Humidity Wind Chill (°F) Heat Index (°F) Pressure Precip. (in)
Air Dwpt 6 hour Altimeter (inHg) Sea level (inHg) 1 hr 3 hr 6 hr
Max Min
Apr 23 03:17 Calm 10 Mostly Cloudy SCT065 BKN080 49 38     64%     30.39        
Apr 23 02:57 Calm 10 Mostly Cloudy SCT065 BKN095 50 38     62%     30.4        
Apr 23 02:37 Calm 10 Cloudy SCT065 BKN075 OVC095 51 38     60%     30.4        
Apr 23 02:17 Calm 10 Cloudy OVC065 52 37     57%     30.4        
Apr 23 01:57 Calm 10 Cloudy OVC065 53 36     52%     30.4        
Apr 23 01:37 Calm 10 Mostly Cloudy BKN065 BKN095 52 36     56%     30.41        
Apr 23 01:17 Calm 10 Mostly Cloudy BKN065 BKN095 53 36     53%     30.41        
Apr 23 00:57 Calm 10 Cloudy BKN065 BKN075 OVC090 53 36     54%     30.41        
Apr 23 00:37 Calm 10 Cloudy SCT065 SCT075 OVC090 52 37     56%     30.41        
Apr 23 00:17 Calm 10 Cloudy BKN065 OVC090 52 37     56%     30.41        
Apr 22 23:57 Calm 10 Cloudy OVC065 53 36     53%     30.41        
Apr 22 23:37 Calm 10 Cloudy OVC065 52 36     53%     30.4        
Apr 22 23:17 Calm 10 Mostly Cloudy BKN065 51 36     56%     30.4        
Apr 22 22:57 Calm 10 Clear CLR 52 35     53%     30.39        
Apr 22 22:37 Calm 10 Partly Cloudy SCT065 53 35     50%     30.39        
Apr 22 22:17 SE 3 10 Mostly Cloudy BKN065 54 36     50%     30.39        
Apr 22 21:57 SE 3 10 Mostly Cloudy BKN065 51 37     59%     30.38        
Apr 22 21:37 Calm 10 Clear CLR 51 38     62%     30.38        
Apr 22 21:17 Calm 10 Clear CLR 53 38     56%     30.37        
Apr 22 20:57 Calm 10 Clear CLR 53 36     52%     30.36        
Apr 22 20:37 Calm 10 Clear CLR 56 35     45%     30.36        
Apr 22 20:17 Calm 10 Clear CLR 58 35     42%     30.35        
Apr 22 19:57 Calm 10 Clear CLR 58 36     43%     30.35        
Apr 22 19:37 Calm 10 Clear CLR 59 36     41%     30.34        
Apr 22 19:17 ESE 3 10 Clear CLR 60 35     38%     30.33        
Apr 22 18:57 SE 5 10 Clear CLR 61 34     37%     30.33        
Apr 22 18:37 ESE 3 10 Clear CLR 61 33     34%     30.33        
Apr 22 18:17 ESE 7 10 Clear CLR 62 33     34%     30.33        
Apr 22 17:57 ESE 5 10 Partly Cloudy SCT110 63 34     34%     30.33        
Apr 22 17:37 E 8 10 Partly Cloudy SCT110 62 35     36%     30.33        
Apr 22 17:17 ESE 5 10 Partly Cloudy SCT120 63 36     37%     30.33        
Apr 22 16:57 SE 7 10 Mostly Cloudy BKN120 63 36     37%     30.33        
Apr 22 16:37 SE 11 10 Clear CLR 63 38     40%     30.33        
Apr 22 16:17 SE 6 10 Partly Cloudy SCT120 65 40     41%     30.33        
Apr 22 15:57 SE 8 10 Partly Cloudy SCT120 64 40     41%     30.33        
Apr 22 15:37 S 6 10 Partly Cloudy SCT120 64 40     41%     30.34        
Apr 22 15:17 E 8 10 Partly Cloudy SCT120 63 41     44%     30.35        
Apr 22 14:57 E 5 10 Partly Cloudy SCT120 64 40     41%     30.35        
Apr 22 14:37 SE 5 10 Clear CLR 64 40     41%     30.35        
Apr 22 14:17 SE 6 10 Clear CLR 64 39     40%     30.36        
Apr 22 13:57 SE 6 10 Clear CLR 63 38     39%     30.36        
Apr 22 13:37 ESE 7 10 Clear CLR 63 39     41%     30.36        
Apr 22 13:17 ESE 6 10 Clear CLR 63 38     41%     30.37        
Apr 22 12:57 ESE 7 10 Clear CLR 63 37     39%     30.38        
Apr 22 12:37 ESE 7 10 Clear CLR 62 38     41%     30.38        
Apr 22 12:17 ESE 6 10 Clear CLR 62 39     42%     30.38        
Apr 22 11:57 NE 8 10 Clear CLR 61 39     44%     30.38        
Apr 22 11:37 SE 8 10 Clear CLR 60 39     46%     30.39        
Apr 22 11:17 E 7 10 Clear CLR 60 39     46%     30.4        
Apr 22 10:57 ENE 6 10 Clear CLR 58 40     51%     30.4        
Apr 22 10:37 ENE 6 10 Clear CLR 58 41     53%     30.4        
Apr 22 10:17 E 6 10 Clear CLR 57 40     54%     30.4        
Apr 22 09:57 ENE 5 10 Clear CLR 55 41     57%     30.41        
Apr 22 09:37 ESE 5 10 Clear CLR 54 40     59%     30.41        
Apr 22 09:17 Calm 10 Clear CLR 53 40     61%     30.41        
Apr 22 08:57 ESE 3 10 Clear CLR 52 40     62%     30.42        
Apr 22 08:37 SE 3 10 Clear CLR 51 40     64%     30.42        
Apr 22 08:17 Calm 10 Partly Cloudy SCT120 49 39     69%     30.41        
Apr 22 07:57 Calm 10 Partly Cloudy SCT120 47 38     71%     30.41        
Apr 22 07:37 Calm 10 Partly Cloudy SCT120 45 39     77%     30.41        
Apr 22 07:17 Calm 10 Mostly Cloudy BKN120 44 38     79%     30.41        
Apr 22 06:57 Calm 10 Clear CLR 43 38     81%              
Apr 22 06:37 Calm 10 Clear CLR 42 37     82%     30.4        
Apr 22 06:17 Calm 10 Clear CLR 42 38     83%     30.39        
Notice The following observation data may not be complete
Apr 22 05:57   10 Clear CLR          %              
Apr 22 05:37 Calm 10 Clear CLR 44 37     78%     30.39        
Apr 22 05:17 Calm 10 Clear CLR 44 38     78%     30.38        
Apr 22 04:57 Calm 10 Clear CLR 45 38     75%     30.38        
Apr 22 04:37 Calm 10 Clear CLR 47 37     69%     30.38        
Apr 22 04:17 Calm 10 Clear CLR 48 37     66%     30.38        
Apr 22 03:57 Calm 10 Partly Cloudy SCT120 50 37     63%     30.37        
Apr 22 03:37 Calm 10 Partly Cloudy SCT110 46 38     72%     30.38        
Apr 22 03:17 Calm 10 Partly Cloudy SCT120 45 37     71%     30.37        
Apr 22 02:57 Calm 10 Clear CLR 45 36     69%     30.37        
Apr 22 02:37 Calm 10 Clear CLR 45 36     69%     30.37        
Apr 22 02:17 Calm 10 Clear CLR 45 36     72%     30.37        
Apr 22 01:57 Calm 10 Clear CLR 46 35     65%     30.38        
Apr 22 01:37 Calm 10 Clear CLR 46 35     64%     30.38        
Apr 22 01:17 Calm 10 Clear CLR 46 35     65%     30.38        
Apr 22 00:57 Calm 10 Clear CLR 47 35     64%     30.38        
Apr 22 00:37 Calm 10 Clear CLR 47 35     64%     30.38        
Apr 22 00:17 Calm 10 Clear CLR 47 35     64%     30.38        
Apr 21 23:57 Calm 10 Clear CLR 48 35     62%     30.38        
Apr 21 23:37 Calm 10 Clear CLR 48 35     60%     30.38        
Apr 21 23:17 Calm 10 Clear CLR 49 33     54%     30.38        
Apr 21 22:57 Calm 10 Clear CLR 49 34     57%     30.38        
Apr 21 22:37 Calm 10 Clear CLR 50 34     54%     30.38        
Apr 21 22:17 Calm 10 Clear CLR 49 39     68%     30.38        
Apr 21 21:57 Calm 10 Clear CLR 51 34     54%     30.37        
Apr 21 21:37 Calm 10 Clear CLR 51 33     50%     30.37        
Apr 21 21:17 Calm 10 Clear CLR 52 32     46%     30.37        
Apr 21 20:57 Calm 10 Clear CLR 53 31     44%     30.36        
Apr 21 20:37 Calm 10 Clear CLR 53 31     43%     30.36        
Apr 21 20:17 Calm 10 Clear CLR 53 29     39%     30.35        
Apr 21 19:57 Calm 10 Clear CLR 55 29     36%     30.35        
Apr 21 19:37 Calm 10 Clear CLR 57 25     29%     30.35        
Apr 21 19:17 Calm 10 Clear CLR 59 23     25%     30.34        
Apr 21 18:57 W 5 10 Clear CLR 60 23     25%     30.34        
Apr 21 18:37 SW 3 10 Clear CLR 60 24     25%     30.34        
Apr 21 18:17 Calm 10 Clear CLR 60 24     26%     30.34        
Apr 21 17:57 Calm 10 Clear CLR 60 24     24%     30.34        
Apr 21 17:37 Calm 10 Clear CLR 60 24     25%     30.33        
Apr 21 17:17 Calm 10 Clear CLR 60 24     25%     30.33        
Apr 21 16:57 Calm 10 Clear CLR 59 24     26%     30.34        
Apr 21 16:37 Calm 10 Clear CLR 59 24     26%     30.34        
Apr 21 16:17 Calm 10 Clear CLR 60 23     25%     30.35        
Apr 21 15:57 NW 3 10 Clear CLR 60 25     26%     30.35        
Apr 21 15:37 Calm 10 Clear CLR 59 24     26%     30.36        
Apr 21 15:17 N 3 10 Clear CLR 59 26     29%     30.37        
Apr 21 14:57 W 9 10 Clear CLR 59 26     29%     30.37        
Apr 21 14:37 ESE 3 10 Clear CLR 58 28     32%     30.38        
Apr 21 14:17 NW 3 10 Clear CLR 57 26     31%     30.39        
Apr 21 13:57 E 5 10 Clear CLR 57 29     34%     30.39        
Apr 21 13:37 NW 3 10 Clear CLR 56 29     35%     30.4        
Apr 21 13:17 Calm 10 Clear CLR 55 26     32%     30.41        
Apr 21 12:57 NE 3 10 Clear CLR 54 26     34%     30.42        
Apr 21 12:37 NW 8 10 Clear CLR 54 26     34%     30.44        
Apr 21 12:17 ENE 3 10 Clear CLR 53 26     35%     30.45        
Apr 21 11:57 N 6 10 Clear CLR 53 27     37%     30.46        
Apr 21 11:37 WNW 3 10 Clear CLR 52 27     39%     30.47        
Apr 21 11:17 NNW 8 10 Clear CLR 51 26     38%     30.48        
Apr 21 10:57 Calm 10 Clear CLR 51 27     39%     30.48        
Apr 21 10:37 N 3 10 Clear CLR 49 26     39% 49   30.49        
Apr 21 10:17 N 3 10 Clear CLR 49 27     42% 49   30.49        
Apr 21 09:57 N 3 10 Clear CLR 48 26     42% 47   30.5        
Apr 21 09:37 NNW 5 10 Clear CLR 47 25     42% 45   30.5        
Apr 21 09:17 Calm 10 Clear CLR 46 26     44%     30.5        
Apr 21 08:57 Calm 10 Clear CLR 45 26     48%     30.49        
Apr 21 08:37 Calm 10 Clear CLR 43 29     58%     30.49        
Apr 21 08:17 Calm 10 Clear CLR 40 30     68%     30.49        
Apr 21 07:57 Calm 10 Clear CLR 37 30     76%     30.48        
Apr 21 07:37 Calm 10 Clear CLR 35 28     78%     30.48        
Apr 21 07:17 Calm 10 Clear CLR 33 27     80%     30.48        
Apr 21 06:57 Calm 10 Clear CLR 32 28     84%     30.47        
Apr 21 06:37 Calm 10 Clear CLR 32 27     83%     30.46        
Apr 21 06:17 Calm 10 Clear CLR 33 27     81%     30.46        
Apr 21 05:57 Calm 10 Clear CLR 33 28     83%     30.46        
Apr 21 05:37 Calm 10 Clear CLR 33 28     82%     30.46        
Apr 21 05:17 Calm 10 Clear CLR 33 28     81%     30.45        
Apr 21 04:57 Calm 10 Clear CLR 33 29     82%     30.45        
Apr 21 04:37 Calm 10 Clear CLR 34 28     80%     30.46        
Apr 21 04:17 Calm 10 Clear CLR 35 28     74%     30.46        
Apr 21 03:57 Calm 10 Clear CLR 36 29     77%     30.46        
Apr 21 03:37 Calm 10 Clear CLR 36 29     76%     30.45        
Apr 21 03:17 Calm 10 Clear CLR 38 28     66%     30.45        
Apr 21 02:57 Calm 10 Clear CLR 38 27     64%     30.44        
Apr 21 02:37 Calm 10 Clear CLR 40 26     57%     30.43        
Apr 21 02:17 Calm 10 Clear CLR 42 26     52%     30.43        
Apr 21 01:57 Calm 10 Clear CLR 43 26     49%     30.43        
Apr 21 01:37 NE 3 10 Clear CLR 44 26     49% 43   30.43        
Apr 21 01:17 Calm 10 Clear CLR 44 27     49%     30.42        
Apr 21 00:57 Calm 10 Clear CLR 44 27     50%     30.41        
Apr 21 00:37 Calm 10 Clear CLR 45 27     48%     30.4        
Apr 21 00:17 Calm 10 Clear CLR 46 27     46%     30.4        
Apr 20 23:57 Calm 10 Clear CLR 47 27     46%     30.39        
Apr 20 23:37 Calm 10 Clear CLR 45 28     51%     30.38        
Apr 20 23:17 Calm 10 Clear CLR 44 31     60%     30.37        
Apr 20 22:57 Calm 10 Clear CLR 45 30     56%     30.36        
Notice The following observation data may not be complete
Apr 20 22:37 Calm 10 Clear CLR   31      %     30.36        
Apr 20 22:17 Calm 10 Clear CLR 46 29     51%     30.35        
Apr 20 21:57 Calm 10 Clear CLR 46 33     60%     30.35        
Apr 20 21:37 Calm 10 Clear CLR 52 25     35%     30.34        
Apr 20 21:17 Calm 10 Clear CLR 52 25     34%     30.34        
Apr 20 20:57 Calm 10 Clear CLR 52 25     34%     30.33        
Apr 20 20:37 NNW 6 10 Clear CLR 53 25     34%     30.32        
Apr 20 20:17 NNW 6 10 Clear CLR 53 25     33%     30.31        
Apr 20 19:57 NNW 6 10 Clear CLR 54 25     32%     30.31        
Apr 20 19:37 N 7 10 Clear CLR 55 25     31%     30.3        
Apr 20 19:17 N 10 10 Clear CLR 56 24     29%     30.29        
Apr 20 18:57 NNW 11 10 Clear CLR 57 25     29%     30.28        
Apr 20 18:37 NW 10 10 Clear CLR 57 25     29%     30.28        
Apr 20 18:17 NNW 9 10 Clear CLR 58 26     29%     30.28        
Apr 20 17:57 WNW 11 10 Clear CLR 58 25     28%     30.27        
Apr 20 17:37 NW 10 10 Clear CLR 58 25     28%     30.27        
Apr 20 17:17 WNW 11 10 Clear CLR 58 25     28%     30.27        
Apr 20 16:57 NNW 8 10 Clear CLR 57 25     29%     30.27        
Apr 20 16:37 NW 8 10 Clear CLR 58 25     29%     30.26        
Apr 20 16:17 WNW 10 10 Clear CLR 58 25     28%     30.26        
Apr 20 15:57 NW 10 10 Clear CLR 57 25     30%     30.26        
Apr 20 15:37 NW 10 10 Clear CLR 57 25     30%     30.26        
Apr 20 15:17 WNW 10 10 Clear CLR 56 24     30%     30.26        
Apr 20 14:57 WNW 8 10 Clear CLR 56 26     32%     30.27        
Apr 20 14:37 NW 11 10 Clear CLR 55 25     31%     30.27        
Apr 20 14:17 WNW 14 10 Clear CLR 54 24     31%     30.28        
Apr 20 13:57 WNW 14 10 Clear CLR 53 25     33%     30.28        
Apr 20 13:37 WNW 13 10 Clear CLR 52 24     33%     30.28        
Apr 20 13:17 WNW 15 10 Clear CLR 52 24     34%     30.28        
Apr 20 12:57 NW 11 10 Clear CLR 52 24     33%     30.29        
Apr 20 12:37 WNW 16 10 Clear CLR 50 23     34%     30.3        
Apr 20 12:17 WNW 11 10 Clear CLR 50 24     36%     30.3        
Apr 20 11:57 WNW 9 10 Clear CLR 49 23     36% 45   30.3        
Apr 20 11:37 WNW 10 10 Clear CLR 48 23     37% 44   30.3        
Apr 20 11:17 NNW 13 10 Clear CLR 47 22     36% 42   30.3        
Apr 20 10:57 NNW 9 10 Clear CLR 47 23     39% 42   30.3        
Apr 20 10:37 NNW 14 10 Clear CLR 45 22     39% 38   30.3        
Apr 20 10:17 NW 10 10 Clear CLR 45 22     39% 39   30.3        
Apr 20 09:57 WNW 13 10 Clear CLR 44 21     40% 38   30.3        
Apr 20 09:37 NW 13 10 Clear CLR 44 21     41% 37   30.29        
Apr 20 09:17 NW 10 10 Clear CLR 43 20     41% 37   30.29        
Apr 20 08:57 WNW 9 10 Clear CLR 42 21     43% 36   30.29        
Apr 20 08:37 NW 8 10 Clear CLR 41 22     47% 36   30.28        
Apr 20 08:17 WNW 8 10 Clear CLR 40 22     48% 34   30.29        
Apr 20 07:57 WNW 8 10 Clear CLR 39 22     50% 33   30.28        
Apr 20 07:37 WNW 8 10 Clear CLR 38 22     53% 32   30.28        
Apr 20 07:17 W 7 10 Clear CLR 37 22     54% 32   30.28        
Apr 20 06:57 WNW 6 10 Clear CLR 37 22     55% 32   30.27        
Apr 20 06:37 WNW 5 10 Clear CLR 36 22     55% 33   30.27        
Apr 20 06:17 W 3 10 Clear CLR 36 22     55% 34   30.26        
Apr 20 05:57 W 5 10 Clear CLR 37 21     53% 33   30.26        
Apr 20 05:37 W 7 10 Clear CLR 37 22     53% 32   30.25        
Apr 20 05:17 NW 8 10 Clear CLR 37 22     54% 31   30.25        
Apr 20 04:57 NW 6 10 Clear CLR 37 22     53% 33   30.25        
Apr 20 04:37 WNW 6 10 Clear CLR 37 22     52% 33   30.24        
Apr 20 04:17 NW 7 10 Clear CLR 38 21     51% 33   30.23        
Apr 20 03:57 NW 8 10 Clear CLR 38 21     51% 32   30.22        
Apr 20 03:37 NW 7 10 Clear CLR 38 21     49% 33   30.21        
Apr 20 03:17 NNW 7 10 Clear CLR 38 21     48% 33   30.21        
Apr 20 02:57 NNW 9 10 Clear CLR 39 20     47% 33   30.2        
Notice The following observation data may not be complete
Jun 12 06:33   10 Mostly Cloudy BKN080          %              
Jun 12 03:33 Calm 10 Clear CLR 68 65     91%     30.05        
Notice The following observation data may not be complete
Jun 12 02:33 Calm 10 Clear CLR   67      %     30.05        
Jun 11 22:53 Calm 10 Clear CLR 75 65     72%   76 30.07        
Notice The following observation data may not be complete
Jun 11 21:13   10 Clear CLR          %              
Jun 11 06:13 Calm 10 Clear CLR 64 62     91%     30.1        
Notice The following observation data may not be complete
Jun 11 02:13   10 Clear CLR          %              
Notice The following observation data may not be complete
Jun 11 01:33 Calm 10 Clear CLR   61      %     30.07        
Jun 11 01:13 Calm 10 Clear CLR 69 61     77%     30.07        
Notice The following observation data may not be complete
Jun 11 00:13 Calm 10 Clear CLR   61      %     30.07        
Jun 10 22:33 Calm 10 Clear CLR 71 62     71%   72 30.07        
Notice The following observation data may not be complete
Jun 10 12:33   10 Clear CLR          %              
Jun 10 11:33 S 3 10 Clear CLR 82 53     36%   81 30.05        
Jun 10 09:33 Calm 10 Clear CLR 74 59     59%   74 30.04        
Notice The following observation data may not be complete
Jun 10 04:33 Calm 10 Clear CLR   56      %     29.98        
Jun 09 21:33 Calm 10 Clear CLR 67 54     62%     29.92        
Jun 09 17:33 WSW 5 10 Partly Cloudy SCT075 80 51     35%   80 29.84        
Jun 09 13:53 WNW 9 10 Partly Cloudy SCT065 SCT080 79 52     39%   78 29.85        
Notice The following observation data may not be complete
Jun 09 13:33   10 Mostly Cloudy BKN065          %              
Jun 09 12:53 WNW 9 10 Partly Cloudy SCT060 SCT070 77 52     41%   77 29.86        
Jun 09 09:53 WNW 9 10 Clear CLR 71 54     55%   70 29.85        
Notice The following observation data may not be complete
Jun 09 07:33   10 Clear CLR          %              
Jun 09 00:53 Calm 10 Clear CLR 54 51     90%     29.83        
Jun 08 15:53 N 5 10 Mostly Cloudy BKN075 72 47     42%   71 29.9        
Jun 08 14:53 NNE 7 10 Clear CLR 71 44     38%   70 29.92        
Jun 08 12:53 NE 8 10 Clear CLR 68 49     50%     29.96        
Jun 08 01:53 Calm 10 Clear CLR 51 50     97%     30.04        
Jun 07 22:53 Calm 10 Clear CLR 54 52     93%     30.05        
Jun 07 22:13 Calm 10 Clear CLR 54 52     92%     30.04        
Jun 07 11:53 NE 3 10 Cloudy SCT016 BKN023 OVC070 62 54     76%     29.99        
Jun 07 11:33 E 8 10 Cloudy BKN018 BKN023 OVC060 62 54     75%     29.98        
Jun 06 11:13 NW 9 10 Partly Cloudy SCT047 72 53     51%   71 29.76        
Notice The following observation data may not be complete
Jun 06 10:33   10 Clear CLR          %              
Jun 06 08:13 NNW 11 10 Partly Cloudy SCT025 69 59     71%     29.74        
Jun 06 07:13 NNW 6 10 Clear CLR 66 59     78%     29.72        
Notice The following observation data may not be complete
Jun 06 03:33   2.5 Mostly Cloudy BKN048          %              
Jun 06 00:13 Calm 3 Partly Cloudy SCT065 64 64     98%     29.68        
Notice The following observation data may not be complete
Jun 05 23:33   7 Clear CLR          %